SCP
-0 -0 0 0 -0 -0 -0 -0 -0 -0 -0 -0 -0 -0 -0 -0 -0 -0 0 0 0 0 -0 0 -0 -0 -0 -0 -0 -0 -0 -0 -0 -0 -0 -0 -0 -0 -0 -0 0 0 0
-0 -0 -0 -0 -0 -0 -0 -0 -0 -0 -0 -0 -0 -0 -0 -0 -0 -0 -0 -0 -0 -0 -0 0 0 -0 -0 -0 -0 -0 -0 -0 -0 -0 -0 -0 -0 -0 -0 -0 -0 -0 -0
-0 -0 -0 -0 -0 -0 -0 -0 -0 -0 -0 -0 -0 -0 -0 -0 -0 -0 -0 -0 -0 -0 -0 -0 -0 -0 -0 -0 -0 -0 -0 -0 -0 -0 -0 0 0 -0 -0 -0 -0 -0 -0
-0 -0 -0 -0 -0 -0 -0 -0 -0 -0 -0 -0 -0 -0 -0 -0 -0 -0 -0 -0 -0 -0 -0 -0 -0 -0 -0 -0 -0 -0 -0 -0 -0 -0 -0 -0 0 -0 -0 -0 -0 -0 -0
-0 -0 -0 -0 -0 -0 -0 -0 -0 -0 -0 -0 -0 -0 -0 -0 -0 -0 -0 -0 -0 -0 -0 -0 -0 -0 -0 -0 -0 -0 -0 -0 -0 -0 0 0 0 -0 -0 -0 -0 -0 -0
-0 -0 -0 -0 -0 -0 -0 -0 -0 -0 -0 -0 -0 -0 -0 -0 -0 -0 -0 -0 -0 -0 -0 -0 -0 -0 -0 -0 -0 -0 -0 -0 0 0 0 0 0 -0 -0 -0 -0 -0 0
-0 -0 -0 -0 -0 -0 -0 -0 -0 -0 -0 -0 -0 -0 -0 -0 -0 -0 -0 -0 -0 -0 -0 -0 -0 -0 -0 -0 -0 -0 -0 -0 0 0 0 0 0 0 0 0 0 0 0
-0 -0 -0 -0 -0 -0 -0 -0 -0 -0 -0 -0 -0 -0 -0 -0 -0 -0 -0 -0 -0 -0 -0 -0 -0 -0 -0 -0 -0 -0 -0 -0 0 0 0 0 0 0 0 0 0 0 0
0 0 0 0 -0 -0 -0 -0 -0 -0 -0 -0 -0 -0 -0 -0 -0 -0 -0 -0 -0 -0 -0 -0 -0 -0 -0 -0 -0 -0 -0 -0 0 0 0 0 0 0 0 0 0 0 0
0 0 0 0 0 0 0 -0 -0 -0 -0 -0 -0 -0 -0 -0 0 0 0 0 -0 -0 -0 -0 -0 -0 -0 -0 -0 -0 -0 -0 0 0 0 0 0 0 0 0 0 0 0
0 0 0 0 0 0 0 0 0 -0 -0 -0 -0 -0 0 0 0 0 0 0 0 0 0 0 0 0 0 -0 0 0 0 0 0 0 0 0 0 0 0 0 0 0 0
0 0 0 0 0 0 0 0 0 0 0 0 0 0 0 0 0 0 0 0 0 0 0 0 0 0 0 0 0 0 0 0 0 0 0 0 0 0 0 0 0 0 0
0 0 0 0 0 0 0 0 0 0 0 0 0 0 0 0 0 0 0 0 0 0 0 0 0 0 0 0 0 0 0 0 0 0 0 0 0 0 0 0 0 0 0
0 0 0 0 0 0 0 0 0 0 0 0 0 0 0 0 0 0 0 0 0 0 0 0 0 0 0 0 0 0 0 0 0 0 0 0 0 0 0 0 0 0 0
0 0 0 0 0 0 0 0 0 0 0 0 0 0 0 0 0 0 0 0 0 0 0 0 0 0 0 0 0 0 0 0 0 0 0 0 0 0 0 0 0 0 0
0 0 0 0 0 0 0 0 0 0 0 0 0 0 0 0 0 0 0 0 0 0 0 0 0 0 0 0 0 0 0 0 0 0 0 0 0 0 0 0 0 0 0
0 0 0 0 0 0 0 0 0 0 0 0 0 0 0 0 0 0 0 0 0 0 0 0 0 0 0 0 0 0 0 0 0 0 0 0 0 0 0 0 0 0 0
0 0 0 0 0 0 0 0 0 0 0 0 0 0 0 0 0 0 0 0 0 0 0 0 0 0 0 0 0 0 0 0 0 0 0 0 0 0 0 0 0 0 0
0 0 0 0 0 0 0 0 0 0 0 0 0 0 0 0 0 0 0 0 0 0 0 0 0 0 0 0 0 0 0 0 0 0 0 0 0 0 0 0 0 0 0
0 0 0 0 0 0 0 0 0 0 0 0 0 0 0 0 0 0 0 0 0 0 0 0 0 0 0 0 0 0 0 0 0 0 0 0 0 0 0 0 0 0 0
0 0 0 0 0 0 0 0 0 0 0 0 0 0 0 0 0 0 0 0 0 0 0 0 0 0 0 0 0 0 0 0 0 0 0 0 0 0 0 0 0 0 0
0 0 0 0 0 0 0 0 0 0 0 0 0 0 0 0 0 0 0 0 0 0 0 0 0 0 0 0 0 0 0 0 0 0 0 0 0 0 0 0 0 0 0
0 0 0 0 0 0 0 0 0 0 0 0 0 0 0 0 0 0 0 0 0 0 0 0 0 0 0 0 0 0 0 0 0 0 0 0 0 0 0 0 0 0 0
0 0 0 0 0 0 0 0 0 0 0 0 0 0 0 0 0 0 0 0 0 0 0 0 0 0 0 0 0 0 0 0 0 0 0 0 0 0 0 0 0 -0 0
0 0 0 0 0 0 0 0 0 0 0 0 0 0 0 0 0 0 0 0 0 0 0 0 0 0 0 0 0 0 0 0 0 0 0 0 0 0 0 -0 -0 -0 -0
0 0 0 0 0 0 0 0 0 0 0 0 0 0 0 0 0 0 0 0 0 0 0 0 0 0 0 0 0 0 0 0 0 0 0 0 0 0 0 0 0 -0 -0
Wind_Speed_500mb
22 23 23 23 23 23 20 19 20 21 19 20 22 25 25 26 27 27 26 23 22 22 18 19 24 23 22 25 24 23 22 24 24 23 24 23 24 24 27 27 26 27 25
21 27 26 24 24 22 20 17 19 17 14 16 19 21 26 25 24 23 22 21 21 21 20 19 19 21 21 25 24 24 23 24 26 25 14 15 19 22 23 23 23 25 27
21 29 28 25 22 21 20 18 16 16 14 12 15 21 25 26 27 27 25 22 20 20 19 17 18 19 19 19 21 22 22 24 22 28 18 14 14 14 16 17 17 20 21
26 29 28 26 23 21 19 17 15 13 12 11 12 18 23 24 26 26 26 24 23 22 22 20 19 19 18 18 16 19 20 24 24 20 22 18 16 13 14 15 16 15 14
29 28 28 27 24 21 18 16 15 12 11 10 8 14 18 20 23 25 25 23 23 22 23 21 20 18 17 15 15 16 17 21 23 27 19 21 20 21 19 18 17 17 16
24 27 25 27 26 23 19 16 14 12 10 9 10 10 16 21 23 25 25 23 21 21 22 22 21 19 17 16 16 15 16 17 20 20 25 29 32 25 24 22 21 19 18
22 24 24 24 25 25 25 20 16 13 9 11 9 5 11 15 19 22 23 23 23 23 23 22 21 20 18 17 17 14 9 11 18 19 20 21 26 26 25 24 22 22 22
22 25 23 22 19 20 24 23 19 16 12 13 10 2 7 10 16 18 20 21 22 22 22 22 20 19 17 15 12 8 4 9 14 17 19 20 24 26 26 26 26 25 25
30 28 24 25 26 22 21 22 20 18 14 14 12 5 2 5 11 14 17 20 20 20 20 20 20 18 16 13 9 5 3 8 12 15 17 18 20 26 24 25 25 24 24
38 35 31 33 28 28 24 21 21 18 16 15 12 9 7 4 7 13 17 21 20 19 18 19 18 16 14 12 10 7 6 8 12 13 14 16 17 19 22 26 28 26 26
44 35 34 33 34 33 27 24 24 22 20 17 18 15 11 9 7 11 16 23 22 24 23 21 19 17 15 13 11 10 10 11 13 14 15 16 16 18 19 18 23 29 29
46 43 40 39 37 35 33 30 29 29 27 25 24 20 16 8 8 1 11 18 18 22 27 24 22 21 18 17 16 15 14 15 14 14 14 14 15 17 19 20 20 17 17
50 47 44 43 40 38 40 37 35 35 31 29 25 26 22 20 15 8 6 3 12 15 16 19 18 19 18 17 17 16 16 15 14 14 13 12 12 16 18 18 20 22 21
51 51 53 50 46 42 42 42 40 35 32 32 31 29 24 26 23 19 13 8 1 9 8 5 7 10 9 7 9 12 15 16 18 16 13 12 14 24 28 21 25 28 26
52 52 54 55 55 52 49 48 45 43 36 38 39 34 29 33 34 27 20 18 10 6 15 6 4 4 2 6 8 13 15 16 17 16 15 12 11 8 14 17 23 31 36
51 51 51 53 52 53 54 54 51 45 48 43 40 39 33 40 36 24 29 21 12 6 12 9 12 10 3 6 11 13 13 14 17 19 20 19 17 17 18 21 22 22 23
47 46 46 47 50 52 53 55 57 55 47 46 45 42 41 42 38 34 39 24 16 8 16 11 12 8 6 8 8 7 11 17 24 27 28 29 28 27 25 24 26 27 27
46 43 41 41 43 45 52 50 55 55 54 51 49 41 48 46 45 42 34 24 17 19 16 15 13 8 6 2 11 13 17 20 24 25 25 24 25 26 27 29 28 29 30
48 45 44 42 41 43 51 52 54 50 54 53 47 41 41 31 50 45 30 20 20 19 16 14 13 9 11 18 21 24 22 20 19 19 19 21 25 27 30 32 34 33 34
53 50 47 45 43 45 52 55 57 60 56 45 33 38 37 50 34 23 23 26 25 19 21 17 13 19 21 23 24 21 18 15 13 10 13 17 27 33 37 38 37 37 37
56 53 49 46 43 46 53 61 60 61 58 57 55 51 49 44 32 34 33 31 30 27 21 21 21 25 29 25 20 18 14 10 4 8 12 15 30 39 40 40 41 42 42
57 52 51 47 43 42 48 57 57 56 58 54 52 50 45 40 36 32 32 35 31 27 25 25 21 26 28 25 11 7 7 7 9 14 9 18 32 38 40 43 43 46 50
63 58 53 47 41 45 54 54 62 60 60 61 59 56 49 39 36 33 34 34 32 30 33 30 25 18 19 18 14 7 5 4 9 9 14 19 35 39 43 45 50 50 55
66 56 50 47 45 46 54 61 61 63 66 63 63 56 49 42 43 39 39 38 38 36 32 29 26 21 16 14 14 9 6 2 5 3 10 20 34 42 49 52 55 60 61
64 58 52 50 48 51 55 58 65 71 66 65 62 58 53 46 43 45 44 43 38 33 28 22 17 13 11 6 6 6 9 11 18 18 17 43 45 51 55 59 62 64 63
65 60 55 56 54 56 58 69 65 68 69 68 65 61 56 53 54 51 47 41 36 31 25 20 16 13 10 6 6 9 12 17 22 26 37 46 50 52 54 57 63 63 71
Wind_Direction_500mb
162 167 159 156 149 145 140 128 112 107 97 95 71 70 69 61 53 53 53 49 52 63 69 75 79 90 93 87 83 71 69 68 63 65 67 80 79 76 69 69 65 60 62
173 168 166 162 152 147 146 134 123 118 97 86 79 68 53 52 48 46 50 55 61 58 58 67 81 94 94 85 70 64 62 56 55 51 60 58 79 76 72 64 66 70 64
174 169 167 167 158 156 152 145 135 125 111 86 73 59 51 46 41 42 45 47 52 61 66 76 84 96 97 92 80 68 61 54 46 40 51 56 48 55 57 51 52 55 64
175 171 169 171 168 165 161 154 145 138 127 109 87 61 56 51 46 42 46 52 54 52 55 61 74 95 107 108 96 70 51 57 38 36 52 52 42 45 42 32 27 32 30
173 173 174 175 175 174 172 168 162 154 146 143 111 68 61 57 52 51 51 51 54 58 63 68 77 92 107 113 98 74 68 51 32 34 48 50 46 56 49 42 28 24 24
169 178 179 179 180 181 183 184 180 171 165 156 143 74 56 55 53 52 55 57 59 59 63 67 75 90 103 113 109 89 72 51 22 39 37 37 41 42 41 37 32 27 23
178 181 182 187 187 189 187 191 190 185 183 175 164 82 53 55 49 46 49 52 56 60 64 68 76 91 105 115 114 111 87 33 20 22 30 28 25 27 32 34 31 31 26
185 180 188 186 202 191 188 193 195 195 190 186 185 142 62 50 45 49 56 61 61 60 63 70 77 86 96 114 119 115 57 6 11 20 23 27 23 26 28 27 27 27 25
175 182 191 207 209 212 202 203 204 200 202 201 196 195 153 54 47 56 59 60 61 66 71 75 77 82 92 107 115 108 26 354 18 28 25 26 26 30 30 28 28 28 29
182 190 196 204 205 217 217 213 212 216 212 207 208 210 173 138 82 73 71 72 73 72 72 73 77 81 84 88 89 78 44 25 31 32 31 31 24 19 25 30 26 26 28
194 193 200 201 204 210 206 209 216 214 213 212 199 214 208 140 105 74 74 63 79 74 70 67 68 69 68 66 63 55 40 29 27 24 21 24 19 19 22 23 42 36 31
197 206 204 204 206 210 208 213 216 221 215 206 207 216 225 214 203 67 76 64 68 71 64 63 68 68 67 66 60 50 37 29 20 14 14 12 5 355 357 357 358 0 26
211 210 209 219 211 213 215 213 222 217 220 212 213 223 217 224 203 209 158 22 27 41 45 63 77 76 69 65 50 29 21 17 17 17 24 18 8 6 12 9 5 359 357
219 221 223 225 222 217 217 217 216 223 219 219 221 219 232 202 209 204 199 203 264 329 341 33 82 90 76 41 17 7 5 6 6 6 20 30 36 44 45 34 33 30 20
225 225 225 228 230 227 219 216 218 217 222 222 227 230 216 224 223 205 208 204 195 285 304 271 304 262 345 340 348 358 0 7 10 14 20 26 41 23 15 22 29 34 33
229 229 228 227 225 223 221 216 215 215 220 224 227 223 227 224 219 228 217 198 213 254 291 259 294 256 294 6 341 352 7 28 33 45 54 56 51 39 32 27 22 15 21
232 229 226 223 223 222 219 213 216 220 221 220 226 228 224 219 234 219 208 203 215 231 276 251 271 238 291 318 329 54 65 64 74 76 76 75 71 63 52 44 36 27 17
222 221 220 219 219 217 216 208 212 221 223 222 226 218 227 233 221 215 220 210 237 272 237 245 236 227 259 151 121 107 97 94 88 83 80 73 62 52 40 31 22 15 9
223 223 223 223 222 216 211 204 206 210 205 201 223 220 216 216 210 206 209 248 250 228 238 222 208 220 171 146 133 119 108 101 92 83 68 51 36 23 14 8 1 356 352
224 225 226 227 227 218 211 204 203 210 213 208 210 199 210 214 196 209 232 235 223 219 207 207 214 172 158 147 137 130 118 103 86 65 38 26 13 5 1 357 355 354 350
225 226 228 230 228 222 212 205 207 212 213 216 213 213 210 224 234 228 228 217 210 201 205 182 185 170 156 152 150 139 134 120 66 353 2 8 1 0 357 354 353 350 348
227 228 226 225 224 220 208 205 204 209 206 205 201 198 195 198 218 210 210 193 189 195 191 168 171 169 164 165 178 178 196 266 297 313 328 344 353 353 351 351 348 347 345
224 224 223 222 219 213 203 208 200 199 199 193 191 190 190 196 198 201 195 191 185 185 172 159 153 157 170 171 182 208 206 222 298 292 316 340 347 350 352 350 347 348 345
222 221 218 215 214 207 203 203 212 208 195 192 190 190 188 186 192 193 189 181 174 168 168 166 158 160 153 156 150 146 134 75 20 303 309 329 350 354 353 350 348 346 345
217 218 214 210 208 201 201 197 198 195 195 192 188 185 183 184 188 184 180 175 175 175 173 167 161 159 150 139 115 84 39 18 10 3 343 341 347 354 353 347 346 345 345
212 212 210 208 202 201 203 203 200 207 203 192 188 187 185 183 183 179 177 178 179 176 171 168 165 164 159 139 81 51 30 22 8 5 352 345 345 345 345 344 342 344 340
Wind_Speed_850mb
22 23 23 23 23 23 20 19 20 21 19 20 22 25 25 26 27 27 26 23 22 22 18 19 24 23 22 25 24 23 22 24 24 23 24 23 24 24 27 27 26 27 25
21 27 26 24 24 22 20 17 19 17 14 16 19 21 26 25 24 23 22 21 21 21 20 19 19 21 21 25 24 24 23 24 26 25 14 15 19 22 23 23 23 25 27
21 29 28 25 22 21 20 18 16 16 14 12 15 21 25 26 27 27 25 22 20 20 19 17 18 19 19 19 21 22 22 24 22 28 18 14 14 14 16 17 17 20 21
26 29 28 26 23 21 19 17 15 13 12 11 12 18 23 24 26 26 26 24 23 22 22 20 19 19 18 18 16 19 20 24 24 20 22 18 16 13 14 15 16 15 14
29 28 28 27 24 21 18 16 15 12 11 10 8 14 18 20 23 25 25 23 23 22 23 21 20 18 17 15 15 16 17 21 23 27 19 21 20 21 19 18 17 17 16
24 27 25 27 26 23 19 16 14 12 10 9 10 10 16 21 23 25 25 23 21 21 22 22 21 19 17 16 16 15 16 17 20 20 25 29 32 25 24 22 21 19 18
22 24 24 24 25 25 25 20 16 13 9 11 9 5 11 15 19 22 23 23 23 23 23 22 21 20 18 17 17 14 9 11 18 19 20 21 26 26 25 24 22 22 22
22 25 23 22 19 20 24 23 19 16 12 13 10 2 7 10 16 18 20 21 22 22 22 22 20 19 17 15 12 8 4 9 14 17 19 20 24 26 26 26 26 25 25
30 28 24 25 26 22 21 22 20 18 14 14 12 5 2 5 11 14 17 20 20 20 20 20 20 18 16 13 9 5 3 8 12 15 17 18 20 26 24 25 25 24 24
38 35 31 33 28 28 24 21 21 18 16 15 12 9 7 4 7 13 17 21 20 19 18 19 18 16 14 12 10 7 6 8 12 13 14 16 17 19 22 26 28 26 26
44 35 34 33 34 33 27 24 24 22 20 17 18 15 11 9 7 11 16 23 22 24 23 21 19 17 15 13 11 10 10 11 13 14 15 16 16 18 19 18 23 29 29
46 43 40 39 37 35 33 30 29 29 27 25 24 20 16 8 8 1 11 18 18 22 27 24 22 21 18 17 16 15 14 15 14 14 14 14 15 17 19 20 20 17 17
50 47 44 43 40 38 40 37 35 35 31 29 25 26 22 20 15 8 6 3 12 15 16 19 18 19 18 17 17 16 16 15 14 14 13 12 12 16 18 18 20 22 21
51 51 53 50 46 42 42 42 40 35 32 32 31 29 24 26 23 19 13 8 1 9 8 5 7 10 9 7 9 12 15 16 18 16 13 12 14 24 28 21 25 28 26
52 52 54 55 55 52 49 48 45 43 36 38 39 34 29 33 34 27 20 18 10 6 15 6 4 4 2 6 8 13 15 16 17 16 15 12 11 8 14 17 23 31 36
51 51 51 53 52 53 54 54 51 45 48 43 40 39 33 40 36 24 29 21 12 6 12 9 12 10 3 6 11 13 13 14 17 19 20 19 17 17 18 21 22 22 23
47 46 46 47 50 52 53 55 57 55 47 46 45 42 41 42 38 34 39 24 16 8 16 11 12 8 6 8 8 7 11 17 24 27 28 29 28 27 25 24 26 27 27
46 43 41 41 43 45 52 50 55 55 54 51 49 41 48 46 45 42 34 24 17 19 16 15 13 8 6 2 11 13 17 20 24 25 25 24 25 26 27 29 28 29 30
48 45 44 42 41 43 51 52 54 50 54 53 47 41 41 31 50 45 30 20 20 19 16 14 13 9 11 18 21 24 22 20 19 19 19 21 25 27 30 32 34 33 34
53 50 47 45 43 45 52 55 57 60 56 45 33 38 37 50 34 23 23 26 25 19 21 17 13 19 21 23 24 21 18 15 13 10 13 17 27 33 37 38 37 37 37
56 53 49 46 43 46 53 61 60 61 58 57 55 51 49 44 32 34 33 31 30 27 21 21 21 25 29 25 20 18 14 10 4 8 12 15 30 39 40 40 41 42 42
57 52 51 47 43 42 48 57 57 56 58 54 52 50 45 40 36 32 32 35 31 27 25 25 21 26 28 25 11 7 7 7 9 14 9 18 32 38 40 43 43 46 50
63 58 53 47 41 45 54 54 62 60 60 61 59 56 49 39 36 33 34 34 32 30 33 30 25 18 19 18 14 7 5 4 9 9 14 19 35 39 43 45 50 50 55
66 56 50 47 45 46 54 61 61 63 66 63 63 56 49 42 43 39 39 38 38 36 32 29 26 21 16 14 14 9 6 2 5 3 10 20 34 42 49 52 55 60 61
64 58 52 50 48 51 55 58 65 71 66 65 62 58 53 46 43 45 44 43 38 33 28 22 17 13 11 6 6 6 9 11 18 18 17 43 45 51 55 59 62 64 63
65 60 55 56 54 56 58 69 65 68 69 68 65 61 56 53 54 51 47 41 36 31 25 20 16 13 10 6 6 9 12 17 22 26 37 46 50 52 54 57 63 63 71
Wind_Direction_850mb
162 167 159 156 149 145 140 128 112 107 97 95 71 70 69 61 53 53 53 49 52 63 69 75 79 90 93 87 83 71 69 68 63 65 67 80 79 76 69 69 65 60 62
173 168 166 162 152 147 146 134 123 118 97 86 79 68 53 52 48 46 50 55 61 58 58 67 81 94 94 85 70 64 62 56 55 51 60 58 79 76 72 64 66 70 64
174 169 167 167 158 156 152 145 135 125 111 86 73 59 51 46 41 42 45 47 52 61 66 76 84 96 97 92 80 68 61 54 46 40 51 56 48 55 57 51 52 55 64
175 171 169 171 168 165 161 154 145 138 127 109 87 61 56 51 46 42 46 52 54 52 55 61 74 95 107 108 96 70 51 57 38 36 52 52 42 45 42 32 27 32 30
173 173 174 175 175 174 172 168 162 154 146 143 111 68 61 57 52 51 51 51 54 58 63 68 77 92 107 113 98 74 68 51 32 34 48 50 46 56 49 42 28 24 24
169 178 179 179 180 181 183 184 180 171 165 156 143 74 56 55 53 52 55 57 59 59 63 67 75 90 103 113 109 89 72 51 22 39 37 37 41 42 41 37 32 27 23
178 181 182 187 187 189 187 191 190 185 183 175 164 82 53 55 49 46 49 52 56 60 64 68 76 91 105 115 114 111 87 33 20 22 30 28 25 27 32 34 31 31 26
185 180 188 186 202 191 188 193 195 195 190 186 185 142 62 50 45 49 56 61 61 60 63 70 77 86 96 114 119 115 57 6 11 20 23 27 23 26 28 27 27 27 25
175 182 191 207 209 212 202 203 204 200 202 201 196 195 153 54 47 56 59 60 61 66 71 75 77 82 92 107 115 108 26 354 18 28 25 26 26 30 30 28 28 28 29
182 190 196 204 205 217 217 213 212 216 212 207 208 210 173 138 82 73 71 72 73 72 72 73 77 81 84 88 89 78 44 25 31 32 31 31 24 19 25 30 26 26 28
194 193 200 201 204 210 206 209 216 214 213 212 199 214 208 140 105 74 74 63 79 74 70 67 68 69 68 66 63 55 40 29 27 24 21 24 19 19 22 23 42 36 31
197 206 204 204 206 210 208 213 216 221 215 206 207 216 225 214 203 67 76 64 68 71 64 63 68 68 67 66 60 50 37 29 20 14 14 12 5 355 357 357 358 0 26
211 210 209 219 211 213 215 213 222 217 220 212 213 223 217 224 203 209 158 22 27 41 45 63 77 76 69 65 50 29 21 17 17 17 24 18 8 6 12 9 5 359 357
219 221 223 225 222 217 217 217 216 223 219 219 221 219 232 202 209 204 199 203 264 329 341 33 82 90 76 41 17 7 5 6 6 6 20 30 36 44 45 34 33 30 20
225 225 225 228 230 227 219 216 218 217 222 222 227 230 216 224 223 205 208 204 195 285 304 271 304 262 345 340 348 358 0 7 10 14 20 26 41 23 15 22 29 34 33
229 229 228 227 225 223 221 216 215 215 220 224 227 223 227 224 219 228 217 198 213 254 291 259 294 256 294 6 341 352 7 28 33 45 54 56 51 39 32 27 22 15 21
232 229 226 223 223 222 219 213 216 220 221 220 226 228 224 219 234 219 208 203 215 231 276 251 271 238 291 318 329 54 65 64 74 76 76 75 71 63 52 44 36 27 17
222 221 220 219 219 217 216 208 212 221 223 222 226 218 227 233 221 215 220 210 237 272 237 245 236 227 259 151 121 107 97 94 88 83 80 73 62 52 40 31 22 15 9
223 223 223 223 222 216 211 204 206 210 205 201 223 220 216 216 210 206 209 248 250 228 238 222 208 220 171 146 133 119 108 101 92 83 68 51 36 23 14 8 1 356 352
224 225 226 227 227 218 211 204 203 210 213 208 210 199 210 214 196 209 232 235 223 219 207 207 214 172 158 147 137 130 118 103 86 65 38 26 13 5 1 357 355 354 350
225 226 228 230 228 222 212 205 207 212 213 216 213 213 210 224 234 228 228 217 210 201 205 182 185 170 156 152 150 139 134 120 66 353 2 8 1 0 357 354 353 350 348
227 228 226 225 224 220 208 205 204 209 206 205 201 198 195 198 218 210 210 193 189 195 191 168 171 169 164 165 178 178 196 266 297 313 328 344 353 353 351 351 348 347 345
224 224 223 222 219 213 203 208 200 199 199 193 191 190 190 196 198 201 195 191 185 185 172 159 153 157 170 171 182 208 206 222 298 292 316 340 347 350 352 350 347 348 345
222 221 218 215 214 207 203 203 212 208 195 192 190 190 188 186 192 193 189 181 174 168 168 166 158 160 153 156 150 146 134 75 20 303 309 329 350 354 353 350 348 346 345
217 218 214 210 208 201 201 197 198 195 195 192 188 185 183 184 188 184 180 175 175 175 173 167 161 159 150 139 115 84 39 18 10 3 343 341 347 354 353 347 346 345 345
212 212 210 208 202 201 203 203 200 207 203 192 188 187 185 183 183 179 177 178 179 176 171 168 165 164 159 139 81 51 30 22 8 5 352 345 345 345 345 344 342 344 340